Weather History for Galesburg, IL

Change the Weather History Date:

Tuesday, August 27, 2013

  Actual Average Record
Temperature  
Mean Temperature 81 °F -  
Max Temperature 93 °F 81 °F 97 °F (1955)
Min Temperature 69 °F 63 °F 49 °F (1986)
Cooling Degree Days 16    
Growing Degree Days 31 (Base 50)    
Moisture  
Dew Point 70 °F    
Average Humidity 72    
Maximum Humidity 99    
Minimum Humidity 46    
Precipitation  
Precipitation 0.00 in - - ()
Sea Level Pressure  
Sea Level Pressure 29.98 in    
Wind  
Wind Speed 8 mph (SSW)    
Max Wind Speed 16 mph    
Max Gust Speed 21 mph    
Visibility 10 miles    
Events      
Averages and records for this station are not official NWS values.
T = Trace of Precipitation, MM = Missing Value Source: NWS Daily Summary

Daily Weather History Graph

Daily Weather History Graph

Search for Another Location

Airport:

Trip Planner

Search our weather history database for the weather conditions in past years. The results will help you decide how hot, cold, wet, or windy it might be!

Date:

Astronomy

Aug. 27, 2013 Rise Set
Actual Time 6:23 AM CDT 7:41 PM CDT
Civil Twilight 5:55 AM CDT 8:10 PM CDT
Nautical Twilight 5:21 AM CDT 8:44 PM CDT
Astronomical Twilight 4:45 AM CDT 9:20 PM CDT
Moon 11:31 PM CDT (8/27) 1:25 PM CDT (8/27)
Length of Visible Light 14h 14m
Length of Day
13h 17m
Waning Gibbous, 57% of the Moon is Illuminated
Aug 27
Waning Gibbous
Aug 28
Last Quarter
Sep 5
New
Sep 12
First Quarter
Sep 19
Full

Hourly Weather History & Observations

Time (CDT) Temp. Heat Index Dew Point Humidity Pressure Visibility Wind Dir Wind Speed Gust Speed Precip Events Conditions
12:15 AM 74.3 °F - 71.6 °F 91% 30.03 in 10.0 mi South 4.6 mph - N/A   Clear
12:35 AM 74.1 °F - 71.4 °F 91% 30.04 in 10.0 mi SSW 5.8 mph - N/A   Clear
12:55 AM 73.2 °F - 70.9 °F 92% 30.03 in 10.0 mi South 4.6 mph - N/A   Clear
1:15 AM 72.9 °F - 70.7 °F 93% 30.04 in 10.0 mi South 4.6 mph - N/A   Scattered Clouds
1:35 AM 73.0 °F - 70.7 °F 92% 30.03 in 10.0 mi South 5.8 mph - N/A   Mostly Cloudy
1:55 AM 72.7 °F - 70.2 °F 92% 30.03 in 10.0 mi South 4.6 mph - N/A   Mostly Cloudy
2:15 AM 72.3 °F - 70.0 °F 92% 30.02 in 10.0 mi South 6.9 mph - N/A   Mostly Cloudy
2:35 AM 72.0 °F - 69.8 °F 93% 30.03 in 10.0 mi SSW 6.9 mph - N/A   Scattered Clouds
2:55 AM 72.0 °F - 69.8 °F 93% 30.02 in 10.0 mi SSW 5.8 mph - N/A   Clear
3:15 AM 71.6 °F - 69.4 °F 93% 30.02 in 10.0 mi SSW 5.8 mph - N/A   Clear
3:35 AM 71.8 °F - 69.4 °F 92% 30.01 in 10.0 mi SSW 6.9 mph - N/A   Clear
3:55 AM 72.0 °F - 69.8 °F 93% 30.01 in 10.0 mi SW 5.8 mph - N/A   Clear
4:15 AM 71.6 °F - 69.4 °F 93% 30.01 in 10.0 mi SSW 5.8 mph - N/A   Clear
4:35 AM 70.9 °F - 69.3 °F 95% 30.01 in 10.0 mi SSW 4.6 mph - N/A   Clear
4:55 AM 70.5 °F - 68.9 °F 95% 30.01 in 10.0 mi SSW 4.6 mph - N/A   Clear
5:15 AM 70.7 °F - 69.6 °F 96% 30.01 in 10.0 mi SSW 4.6 mph - N/A   Clear
5:35 AM 69.8 °F - 69.3 °F 98% 30.02 in 10.0 mi SSW 3.5 mph - N/A   Clear
5:55 AM 69.8 °F - 69.1 °F 98% 30.03 in 10.0 mi SSW 4.6 mph - N/A   Clear
6:15 AM 69.4 °F - 69.1 °F 99% 30.03 in 10.0 mi South 3.5 mph - N/A   Clear
6:35 AM 69.3 °F - 69.1 °F 99% 30.03 in 10.0 mi SSW 4.6 mph - N/A   Clear
6:55 AM 70.0 °F - 69.8 °F 99% 30.03 in 10.0 mi SSW 4.6 mph - N/A   Clear
7:15 AM 71.2 °F - 70.3 °F 97% 30.04 in 10.0 mi SSW 4.6 mph - N/A   Clear
7:35 AM 73.4 °F - 71.1 °F 92% 30.04 in 10.0 mi SW 6.9 mph - N/A   Clear
7:55 AM 75.7 °F - 71.6 °F 87% 30.04 in 10.0 mi SW 6.9 mph - N/A   Clear
8:15 AM 77.4 °F - 72.3 °F 84% 30.04 in 10.0 mi SW 6.9 mph - N/A   Clear
8:35 AM 78.8 °F - 72.1 °F 80% 30.04 in 10.0 mi SW 9.2 mph - N/A   Clear
8:55 AM 80.1 °F 84.1 °F 72.5 °F 78% 30.03 in 10.0 mi SW 9.2 mph - N/A   Clear
9:15 AM 81.5 °F 86.3 °F 72.5 °F 74% 30.03 in 10.0 mi SW 10.4 mph - N/A   Clear
9:35 AM 82.8 °F 87.9 °F 72.0 °F 70% 30.03 in 10.0 mi WSW 10.4 mph 18.4 mph N/A   Clear
9:55 AM 83.3 °F 88.4 °F 72.0 °F 68% 30.03 in 10.0 mi SW 12.7 mph - N/A   Clear
10:15 AM 84.4 °F 90.0 °F 71.8 °F 66% 30.03 in 10.0 mi SW 12.7 mph 17.3 mph N/A   Clear
10:35 AM 85.3 °F 91.8 °F 72.7 °F 66% 30.02 in 10.0 mi SW 11.5 mph - N/A   Clear
10:55 AM 85.3 °F 91.5 °F 72.3 °F 65% 30.01 in 10.0 mi SW 12.7 mph 16.1 mph N/A   Clear
11:15 AM 86.5 °F 93.3 °F 72.5 °F 63% 30.01 in 10.0 mi SW 12.7 mph 16.1 mph N/A   Clear
11:35 AM 87.8 °F 95.2 °F 72.9 °F 61% 30.00 in 10.0 mi SW 11.5 mph - N/A   Clear
11:55 AM 88.9 °F 96.6 °F 72.7 °F 59% 29.99 in 10.0 mi WSW 11.5 mph 18.4 mph N/A   Clear
12:15 PM 89.2 °F 96.4 °F 72.3 °F 57% 29.99 in 10.0 mi SW 13.8 mph 18.4 mph N/A   Clear
12:35 PM 90.3 °F 97.7 °F 72.3 °F 55% 29.99 in 10.0 mi SW 11.5 mph - N/A   Clear
12:55 PM 90.3 °F 97.7 °F 72.0 °F 55% 29.97 in 10.0 mi SW 11.5 mph 18.4 mph N/A   Clear
1:15 PM 92.3 °F 100.9 °F 73.0 °F 53% 29.96 in 10.0 mi WSW 11.5 mph 17.3 mph N/A   Clear
1:35 PM 91.6 °F 99.9 °F 73.0 °F 54% 29.96 in 10.0 mi SW 11.5 mph - N/A   Clear
1:55 PM 92.3 °F 100.9 °F 73.0 °F 53% 29.96 in 10.0 mi SSW 12.7 mph 16.1 mph N/A   Clear
2:15 PM 92.5 °F 100.7 °F 72.5 °F 52% 29.96 in 10.0 mi SW 13.8 mph 18.4 mph N/A   Clear
2:35 PM 92.8 °F 100.9 °F 72.3 °F 51% 29.95 in 10.0 mi SSW 16.1 mph 20.7 mph N/A   Clear
2:55 PM 93.2 °F 101.1 °F 72.0 °F 50% 29.94 in 10.0 mi SSW 15.0 mph 19.6 mph N/A   Clear
3:15 PM 93.4 °F 100.3 °F 71.2 °F 48% 29.94 in 10.0 mi SW 15.0 mph - N/A   Clear
3:35 PM 93.2 °F 99.9 °F 70.9 °F 48% 29.94 in 10.0 mi SSW 16.1 mph 20.7 mph N/A   Clear
3:55 PM 93.6 °F 100.7 °F 71.4 °F 48% 29.93 in 10.0 mi SSW 15.0 mph - N/A   Clear
4:15 PM 93.4 °F 99.7 °F 70.5 °F 47% 29.93 in 10.0 mi SW 15.0 mph 20.7 mph N/A   Clear
4:35 PM 93.4 °F 99.7 °F 70.3 °F 47% 29.92 in 10.0 mi SSW 15.0 mph 19.6 mph N/A   Clear
4:55 PM 93.2 °F 98.8 °F 69.8 °F 46% 29.92 in 10.0 mi SSW 15.0 mph 20.7 mph N/A   Clear
5:15 PM 92.8 °F 98.6 °F 70.0 °F 47% 29.92 in 10.0 mi SW 11.5 mph 19.6 mph N/A   Clear
5:35 PM 92.3 °F 98.1 °F 70.0 °F 48% 29.92 in 10.0 mi SSW 13.8 mph - N/A   Clear
5:55 PM 91.6 °F 97.2 °F 69.8 °F 49% 29.92 in 10.0 mi SSW 11.5 mph - N/A   Clear
6:15 PM 90.5 °F 96.0 °F 70.2 °F 51% 29.92 in 10.0 mi SSW 9.2 mph - N/A   Clear
6:35 PM 89.1 °F 94.6 °F 70.5 °F 54% 29.92 in 10.0 mi SSW 8.1 mph - N/A   Clear
6:55 PM 87.1 °F 92.8 °F 71.1 °F 59% 29.92 in 10.0 mi SSW 6.9 mph - N/A   Clear
7:15 PM 84.9 °F 89.7 °F 70.5 °F 62% 29.92 in 10.0 mi SSW 8.1 mph - N/A   Clear
7:35 PM 82.6 °F 86.4 °F 69.8 °F 65% 29.91 in 10.0 mi South 8.1 mph - N/A   Clear
7:55 PM 81.5 °F 84.8 °F 69.3 °F 66% 29.92 in 10.0 mi SSW 8.1 mph - N/A   Clear
8:15 PM 80.2 °F 83.0 °F 68.4 °F 67% 29.92 in 10.0 mi SSW 8.1 mph - N/A   Clear
8:35 PM 79.5 °F - 67.8 °F 67% 29.93 in 10.0 mi SSW 9.2 mph - N/A   Clear
8:55 PM 79.2 °F - 67.5 °F 67% 29.93 in 10.0 mi SSW 8.1 mph - N/A   Clear
9:15 PM 78.4 °F - 67.1 °F 68% 29.94 in 10.0 mi SSW 6.9 mph - N/A   Clear
9:35 PM 77.4 °F - 66.6 °F 69% 29.94 in 10.0 mi SSW 6.9 mph - N/A   Clear
9:55 PM 76.1 °F - 66.4 °F 72% 29.94 in 10.0 mi SSW 6.9 mph - N/A   Clear
10:15 PM 75.4 °F - 66.6 °F 74% 29.94 in 10.0 mi SSW 5.8 mph - N/A   Clear
10:35 PM 75.4 °F - 66.4 °F 73% 29.94 in 10.0 mi SSW 8.1 mph - N/A   Clear
10:55 PM 75.7 °F - 65.8 °F 71% 29.95 in 10.0 mi SSW 5.8 mph - N/A   Clear
11:15 PM 75.4 °F - 65.5 °F 71% 29.95 in 10.0 mi SSW 9.2 mph - N/A   Clear
11:35 PM 76.1 °F - 65.1 °F 69% 29.95 in 10.0 mi SSW 10.4 mph - N/A   Clear
11:55 PM 75.9 °F - 65.1 °F 69% 29.95 in 10.0 mi SW 9.2 mph - N/A   Clear